RH
41 40 41 42 42 39 37 36 35 30 28 29 30 30 31 32 32 31 31 30 29 30 33 33 34 36 37 38 40 41 41 42 42 41 41 42 42 42 42 43 42 42
41 41 43 44 44 44 41 39 37 33 28 28 29 30 30 31 31 31 31 31 31 32 34 35 36 37 38 39 41 42 43 43 43 42 43 44 43 42 41 41 42 43
43 43 44 44 45 46 45 43 40 38 34 32 32 31 30 29 28 29 30 30 31 33 35 36 37 38 39 40 42 43 42 42 43 45 45 45 44 44 44 44 44 45
43 44 45 44 44 45 45 44 43 42 41 38 36 34 31 28 27 28 29 29 30 31 33 34 35 37 38 39 40 41 41 41 42 43 44 44 44 45 47 47 47 45
42 43 44 43 43 43 44 44 43 43 43 41 39 38 36 33 30 30 30 30 29 29 30 31 32 34 36 38 39 39 40 40 41 41 41 42 43 43 43 44 43 43
40 41 42 42 43 43 44 44 43 42 42 43 42 41 41 38 36 34 34 33 31 30 31 32 33 34 35 38 39 39 40 40 41 40 38 38 38 39 39 38 38 39
38 39 40 41 42 43 44 44 43 42 42 43 43 43 43 42 40 38 37 36 34 33 34 34 35 36 36 38 39 40 40 39 39 38 37 36 36 36 35 35 35 35
35 37 38 39 40 42 43 43 43 42 43 44 44 44 44 43 42 41 40 39 37 35 36 37 38 39 39 39 40 40 40 39 38 36 36 36 36 35 35 36 36 36
34 35 36 37 37 39 41 42 42 42 44 44 44 44 44 43 43 42 41 41 40 39 40 41 42 42 41 39 37 36 36 36 36 35 36 36 35 35 36 38 40 39
32 33 34 35 35 36 38 39 39 40 42 44 44 43 43 43 42 42 42 42 43 43 44 44 45 44 43 41 37 34 32 32 33 35 35 35 35 35 36 38 39 39
30 31 33 33 34 34 35 36 36 37 40 42 43 43 43 43 43 43 43 43 45 46 47 48 47 47 46 43 39 36 34 32 32 33 34 36 38 39 39 39 40 40
28 29 31 32 33 33 34 34 34 35 37 39 42 43 43 43 44 46 46 45 46 48 49 49 48 47 45 42 40 37 34 32 32 33 34 36 38 40 41 42 42 43
27 28 29 30 32 33 33 34 34 34 35 37 39 41 42 42 43 46 48 49 49 50 51 50 48 46 43 40 38 36 34 33 34 35 36 36 37 39 41 41 42 44
29 29 29 30 30 31 32 33 33 34 34 35 37 39 40 41 41 43 47 49 49 50 50 48 46 44 42 40 38 37 36 36 35 36 37 38 38 38 37 38 39 41
32 30 30 30 31 30 31 32 32 33 33 34 35 37 39 40 40 41 44 46 47 46 45 44 43 41 40 38 37 37 36 36 35 35 36 38 40 40 39 37 37 37
40 36 32 31 31 31 31 31 32 32 33 34 34 36 37 38 40 42 43 44 44 43 41 40 39 39 38 37 36 36 35 35 35 34 35 37 39 41 42 40 38 36
44 42 38 34 32 32 32 32 32 33 33 34 34 35 35 36 39 42 42 43 43 42 41 39 39 38 37 37 37 37 36 36 36 35 35 36 39 42 45 46 44 39
48 44 42 39 35 33 32 32 33 33 33 33 33 33 34 35 37 39 41 42 42 43 41 39 39 38 38 38 37 38 39 40 40 40 39 38 40 44 47 50 50 46
58 53 48 42 37 34 32 32 32 32 32 32 32 32 33 34 36 37 39 41 42 43 41 40 38 37 37 37 37 38 41 42 45 47 46 46 49 54 59 61 59 57
62 61 55 48 42 38 36 35 34 33 33 33 33 33 33 34 35 37 39 40 41 42 40 39 38 37 37 37 38 40 41 45 50 52 54 60 68 72 73 73 70 69
62 62 62 60 53 46 41 39 36 35 34 35 36 36 35 35 34 36 38 39 40 40 39 39 38 38 39 39 40 41 43 47 53 56 60 70 78 77 75 77 78 78
66 65 68 69 63 54 49 46 44 40 38 39 41 41 40 39 36 35 37 39 39 39 38 39 40 40 41 42 43 45 48 52 57 62 68 75 78 77 77 78 80 80
71 69 71 73 69 63 59 57 54 51 50 49 48 47 47 45 43 41 40 40 42 42 41 43 44 44 44 47 49 50 52 55 59 64 71 78 81 80 80 79 78 79
74 73 73 75 74 70 66 65 64 63 63 63 61 59 57 55 54 51 48 48 49 49 49 49 50 51 50 51 54 55 55 58 62 66 70 76 79 79 79 79 78 78
76 76 75 76 77 75 73 72 71 70 71 71 71 70 69 70 69 65 62 63 62 60 58 57 58 60 62 63 66 68 67 68 70 69 65 65 67 67 68 70 70 71
77 78 77 77 78 79 78 78 78 76 74 73 73 74 76 79 79 76 75 77 77 74 72 71 69 69 73 76 79 82 82 79 74 68 62 61 63 64 66 69 71 70